State University, AR

4:31 AM CDT on September 28, 2016 (GMT -0500)
Jonesboro Municipal

Weather History for KJBR - April, 2013

Change the Weather History Date:

Wednesday, April 10, 2013

  Actual Average Record
Temperature  
Mean Temperature 74 °F 58 °F  
Max Temperature 83 °F 69 °F 91 °F (1906)
Min Temperature 65 °F 48 °F 28 °F (1914)
Degree Days  
Heating Degree Days 0 8  
Month to date heating degree days 93 92  
Since 1 July heating degree days 3336 3512  
Cooling Degree Days 9 1  
Month to date cooling degree days 19 10  
Year to date cooling degree days 19 16  
Growing Degree Days 23 (Base 50)    
Moisture  
Dew Point 65 °F    
Average Humidity 79    
Maximum Humidity 100    
Minimum Humidity 58    
Precipitation  
Precipitation 1.36 in 0.19 in 1.55 in (1969)
Month to date precipitation 1.40 1.52  
Year to date precipitation 13.28 13.17  
Snow  
Snow 0.00 in 0.00 in - ()
Month to date snowfall 0.0 0.0  
Since 1 July snowfall 11.0 4.8  
Snow Depth 0.00 in    
Sea Level Pressure  
Sea Level Pressure 29.77 in    
Wind  
Wind Speed 16 mph (South)    
Max Wind Speed 41 mph    
Max Gust Speed 58 mph    
Visibility 8 miles    
Events Rain , Thunderstorm    
T = Trace of Precipitation, MM = Missing Value Source: NWS Daily Summary

Daily Weather History Graph

Daily Weather History Graph

Search for Another Location

Airport or City:

Trip Planner

Search our weather history database for the weather conditions in past years. The results will help you decide how hot, cold, wet, or windy it might be!

Date:

Astronomy

Apr. 10, 2013 Rise Set
Actual Time 6:36 AM CDT 7:32 PM CDT
Civil Twilight 6:09 AM CDT 7:58 PM CDT
Nautical Twilight 5:39 AM CDT 8:29 PM CDT
Astronomical Twilight 5:07 AM CDT 9:01 PM CDT
Moon 6:33 AM CDT (4/10) 8:05 PM CDT (4/10)
Length of Visible Light 13h 48m
Length of Day
12h 56m
New Moon, 0% of the Moon is Illuminated
Apr 10
New Moon
Apr 18
First Quarter
Apr 25
Full
May 2
Last Quarter
May 9
New

Hourly Weather History & Observations

Time (CDT) Temp. Heat Index Dew Point Humidity Pressure Visibility Wind Dir Wind Speed Gust Speed Precip Events Conditions
12:53 AM 72.0 °F - 64.9 °F 78% 29.85 in 10.0 mi South 11.5 mph - N/A   Partly Cloudy
1:53 AM 72.0 °F - 64.9 °F 78% 29.86 in 10.0 mi South 13.8 mph - N/A   Clear
2:53 AM 72.0 °F - 64.9 °F 78% 29.84 in 10.0 mi South 16.1 mph - N/A   Mostly Cloudy
3:53 AM 72.0 °F - 66.0 °F 81% 29.83 in 10.0 mi South 15.0 mph - N/A   Overcast
4:01 AM 71.6 °F - 66.2 °F 83% 29.84 in 10.0 mi South 16.1 mph - N/A   Overcast
4:12 AM 71.6 °F - 66.2 °F 83% 29.84 in 10.0 mi South 17.3 mph 23.0 mph N/A   Overcast
4:53 AM 71.1 °F - 64.9 °F 81% 29.84 in 10.0 mi South 16.1 mph - N/A   Scattered Clouds
5:53 AM 70.0 °F - 64.9 °F 84% 29.85 in 10.0 mi South 11.5 mph - N/A   Clear
6:53 AM 71.1 °F - 66.0 °F 84% 29.86 in 10.0 mi South 10.4 mph - N/A   Overcast
7:53 AM 71.1 °F - 66.0 °F 84% 29.87 in 10.0 mi South 16.1 mph 23.0 mph N/A   Scattered Clouds
8:53 AM 72.0 °F - 66.9 °F 84% 29.88 in 10.0 mi South 15.0 mph - N/A   Partly Cloudy
9:53 AM 75.9 °F - 66.9 °F 74% 29.88 in 10.0 mi South 18.4 mph 31.1 mph N/A   Mostly Cloudy
10:53 AM 77.0 °F - 66.9 °F 71% 29.88 in 10.0 mi South 15.0 mph 26.5 mph N/A   Mostly Cloudy
11:53 AM 78.8 °F - 66.2 °F 65% 29.88 in 10.0 mi South 17.3 mph 24.2 mph N/A   Mostly Cloudy
12:08 PM 77.0 °F - 66.2 °F 69% 29.88 in 10.0 mi South 19.6 mph 26.5 mph N/A   Overcast
12:40 PM 78.8 °F - 68.0 °F 69% 29.86 in 10.0 mi South 19.6 mph 28.8 mph N/A   Mostly Cloudy
12:53 PM 78.1 °F - 66.9 °F 68% 29.85 in 10.0 mi South 20.7 mph 29.9 mph N/A   Overcast
1:53 PM 80.1 °F 82.1 °F 66.0 °F 62% 29.82 in 10.0 mi South 24.2 mph 32.2 mph N/A   Mostly Cloudy
2:53 PM 82.0 °F 84.1 °F 66.0 °F 58% 29.78 in 10.0 mi South 23.0 mph 32.2 mph N/A   Mostly Cloudy
3:53 PM 81.0 °F 83.0 °F 66.0 °F 60% 29.75 in 10.0 mi South 21.9 mph 31.1 mph N/A   Mostly Cloudy
4:53 PM 80.1 °F 81.9 °F 64.9 °F 60% 29.72 in 10.0 mi South 18.4 mph 28.8 mph N/A   Partly Cloudy
5:53 PM 79.0 °F - 64.0 °F 60% 29.67 in 10.0 mi SSE 19.6 mph 25.3 mph N/A   Clear
6:53 PM 79.0 °F - 63.0 °F 58% 29.64 in 10.0 mi SSE 16.1 mph 23.0 mph N/A   Clear
7:53 PM 79.0 °F - 62.1 °F 56% 29.66 in 10.0 mi SSE 17.3 mph 26.5 mph N/A   Mostly Cloudy
8:34 PM 75.2 °F - 64.4 °F 69% 29.67 in 10.0 mi South 10.4 mph 21.9 mph 0.00 in Rain , Thunderstorm Light Rain
8:53 PM 70.0 °F - 64.9 °F 84% 29.68 in 2.5 mi South 24.2 mph 47.2 mph 0.17 in Rain , Thunderstorm Heavy Thunderstorms and Rain
8:59 PM 68.0 °F - 64.4 °F 88% 29.69 in 1.0 mi WSW 25.3 mph 57.5 mph 0.16 in Rain , Thunderstorm Heavy Thunderstorms and Rain
9:04 PM 68.0 °F - 66.2 °F 94% 29.73 in 1.2 mi West 13.8 mph 57.5 mph N/A Rain , Thunderstorm Heavy Thunderstorms and Rain
9:14 PM 66.2 °F - 66.2 °F 100% 29.74 in 2.0 mi South 13.8 mph - 0.39 in Rain , Thunderstorm Heavy Thunderstorms and Rain
9:21 PM 66.2 °F - 64.4 °F 94% 29.74 in 1.8 mi SSW 12.7 mph - 0.48 in Rain , Thunderstorm Heavy Thunderstorms and Rain
9:29 PM 66.2 °F - 64.4 °F 94% 29.76 in 2.5 mi WSW 6.9 mph - 0.55 in Rain , Thunderstorm Heavy Thunderstorms and Rain
9:37 PM 66.2 °F - 64.4 °F 94% 29.75 in 3.0 mi WSW 6.9 mph - 0.59 in Rain , Thunderstorm Thunderstorms and Rain
9:45 PM 66.2 °F - 64.4 °F 94% 29.73 in 2.0 mi ESE 10.4 mph - 0.67 in Rain , Thunderstorm Heavy Thunderstorms and Rain
9:53 PM 64.9 °F - 64.0 °F 97% 29.71 in 3.0 mi SE 6.9 mph - 0.73 in Rain , Thunderstorm Heavy Thunderstorms and Rain
10:37 PM 66.2 °F - 64.4 °F 94% 29.70 in 6.0 mi ESE 6.9 mph - 0.09 in Rain Rain
10:53 PM 66.0 °F - 64.0 °F 93% 29.69 in 6.0 mi ESE 3.5 mph - 0.13 in Rain Light Rain
11:01 PM 66.2 °F - 64.4 °F 94% 29.71 in 7.0 mi SSE 3.5 mph - 0.02 in Rain , Thunderstorm Light Rain
11:20 PM 66.2 °F - 64.4 °F 94% 29.70 in 3.0 mi SE 8.1 mph - 0.12 in Rain Heavy Rain
11:31 PM 66.2 °F - 64.4 °F 94% 29.71 in 5.0 mi SSE 10.4 mph - 0.17 in Rain , Thunderstorm Rain
11:46 PM 66.2 °F - 64.4 °F 94% 29.68 in 6.0 mi SE 5.8 mph - 0.23 in Rain , Thunderstorm Light Rain
11:53 PM 66.0 °F - 64.9 °F 96% 29.68 in 6.0 mi SSW 4.6 mph - 0.25 in Rain , Thunderstorm Light Rain